Williston, VT

9:14 PM EST on February 27, 2017 (GMT -0500)
Burlington International

Weather History for KBTV - March, 2013

Change the Weather History Date:

Saturday, March 9, 2013

  Actual Average Record
Temperature  
Mean Temperature 35 °F 28 °F  
Max Temperature 47 °F 37 °F 70 °F (2016)
Min Temperature 22 °F 19 °F -15 °F (2007)
Degree Days  
Heating Degree Days 30 37  
Month to date heating degree days 302 345  
Since 1 July heating degree days 5180 5755  
Cooling Degree Days 0 0  
Month to date cooling degree days 0 0  
Year to date cooling degree days 0 0  
Moisture  
Dew Point 21 °F    
Average Humidity 63    
Maximum Humidity 88    
Minimum Humidity 37    
Precipitation  
Precipitation 0.00 in 0.08 in 0.72 in (1946)
Month to date precipitation 0.17 0.61  
Year to date precipitation 2.60 4.43  
Snow  
Snow 0.00 in 0.70 in 11.50 in (1916)
Month to date snowfall 3.5 5.7  
Since 1 July snowfall 69.2 66.5  
Snow Depth 0.00 in    
Sea Level Pressure  
Sea Level Pressure 30.35 in    
Wind  
Wind Speed 4 mph (North)    
Max Wind Speed 10 mph    
Max Gust Speed 15 mph    
Visibility 10 miles    
Events      
T = Trace of Precipitation, MM = Missing Value Source: NWS Daily Summary

Daily Weather History Graph

Daily Weather History Graph

Search for Another Location

Airport or City:

Trip Planner

Search our weather history database for the weather conditions in past years. The results will help you decide how hot, cold, wet, or windy it might be!

Date:

Astronomy

Mar. 09, 2013 Rise Set
Actual Time 6:15 AM EST 5:51 PM EST
Civil Twilight 5:46 AM EST 6:20 PM EST
Nautical Twilight 5:12 AM EST 6:54 PM EST
Astronomical Twilight 4:38 AM EST 7:28 PM EST
Moon 4:41 AM EST (3/9) 3:47 PM EST (3/9)
Length of Visible Light 12h 33m
Length of Day
11h 35m
Waning Crescent, 5% of the Moon is Illuminated
Mar 9
Waning Crescent
Mar 11
New
Mar 19
First Quarter
Mar 27
Full
Apr 3
Last Quarter

Hourly Weather History & Observations

Time (EST) Temp. Windchill Dew Point Humidity Pressure Visibility Wind Dir Wind Speed Gust Speed Precip Events Conditions
12:54 AM 28.0 °F 24.2 °F 21.0 °F 75% 30.35 in 10.0 mi ENE 3.5 mph - N/A   Clear
1:54 AM 27.0 °F 20.5 °F 19.9 °F 75% 30.34 in 10.0 mi ENE 5.8 mph - N/A   Clear
2:54 AM 27.0 °F 21.6 °F 19.9 °F 75% 30.33 in 10.0 mi ENE 4.6 mph - N/A   Clear
3:54 AM 25.0 °F - 19.0 °F 78% 30.34 in 10.0 mi Calm Calm - N/A   Clear
4:54 AM 24.1 °F - 19.0 °F 81% 30.35 in 10.0 mi Calm Calm - N/A   Clear
5:54 AM 23.0 °F - 19.0 °F 85% 30.37 in 10.0 mi Calm Calm - N/A   Clear
6:54 AM 24.8 °F - 19.4 °F 80% 30.36 in 9.0 mi Calm Calm - N/A   Clear
7:54 AM 30.0 °F 25.2 °F 21.9 °F 72% 30.39 in 10.0 mi North 4.6 mph - N/A   Clear
8:54 AM 34.0 °F 27.2 °F 21.9 °F 61% 30.38 in 10.0 mi NNW 8.1 mph - N/A   Clear
9:54 AM 37.0 °F 31.0 °F 21.0 °F 52% 30.38 in 10.0 mi North 8.1 mph - N/A   Clear
10:54 AM 39.0 °F 32.3 °F 21.9 °F 50% 30.39 in 10.0 mi NW 10.4 mph - N/A   Clear
11:54 AM 42.1 °F 40.2 °F 21.9 °F 45% 30.37 in 10.0 mi NNE 3.5 mph - N/A   Clear
12:54 PM 44.1 °F 41.5 °F 21.9 °F 42% 30.34 in 10.0 mi Variable 4.6 mph - N/A   Clear
1:54 PM 45.0 °F 40.1 °F 24.1 °F 44% 30.33 in 10.0 mi NW 9.2 mph - N/A   Clear
2:54 PM 46.0 °F 41.0 °F 21.9 °F 39% 30.33 in 10.0 mi NW 10.4 mph - N/A   Clear
3:54 PM 46.0 °F 41.4 °F 21.9 °F 39% 30.33 in 10.0 mi NNW 9.2 mph - N/A   Clear
4:54 PM 44.1 °F 40.1 °F 21.9 °F 42% 30.34 in 10.0 mi NNW 6.9 mph - N/A   Clear
5:54 PM 39.0 °F 34.0 °F 19.9 °F 46% 30.35 in 10.0 mi NNW 6.9 mph - N/A   Clear
6:54 PM 36.0 °F 33.3 °F 21.0 °F 55% 30.35 in 10.0 mi NNW 3.5 mph - N/A   Clear
7:54 PM 34.0 °F - 21.0 °F 59% 30.35 in 10.0 mi Calm Calm - N/A   Clear
8:54 PM 32.0 °F - 21.0 °F 64% 30.34 in 10.0 mi Calm Calm - N/A   Clear
9:54 PM 28.0 °F - 21.9 °F 78% 30.34 in 10.0 mi Calm Calm - N/A   Clear
10:54 PM 27.0 °F - 21.9 °F 81% 30.35 in 10.0 mi Calm Calm - N/A   Clear
11:54 PM 28.0 °F - 21.9 °F 78% 30.35 in 10.0 mi Calm Calm - N/A   Clear